Location: Joplin, MO
(37.0842°N, 94.5133°W)
Time: 22:03:59
(UTC+02:00)

Courier 1B Rocket - Pass Details

Date: 05 April 2023
Orbit: 920 x 1202 km, 28.2° (Epoch: 05 June)

Event Time Altitude Azimuth Distance (km) Brightness Sun altitude
Rises 23:17:50 0° 232° (SW) 4,075 9.1 39.3°
Reaches altitude 10° 23:21:01 10° 222° (SW) 3,123 8.7 38.7°
Maximum altitude 23:27:42 32° 163° (SSE) 1,936 7.0 37.5°
Drops below altitude 10° 23:34:17 10° 104° (ESE) 3,079 7.3 36.3°
Sets 23:37:24 0° 95° (E) 4,011 7.8 35.7°
